This is the latest recevied weather packets stored in our database for station/object VANOK. If no packets are shown the sender has not sent any weather packets the latest 10 day(s).
| Time | Temp. | Humidity | Pressure | Rain* | Wind** | Luminosity | Snow |
|---|---|---|---|---|---|---|---|
| 1777211198 | 5.56° C | 49% | 1010.6 hPa | - | - | - | - |
| 1777209999 | 5.56° C | 47% | 1010.4 hPa | - | - | - | - |
| 1777208799 | 5° C | 46% | 1010.2 hPa | - | - | - | - |
| 1777207599 | 5° C | 48% | 1010.1 hPa | - | - | - | - |
| 1777206398 | 5° C | 52% | 1009.8 hPa | - | - | - | - |
| 1777205198 | 5° C | 52% | 1009.7 hPa | - | - | - | - |
| 1777203998 | 5° C | 55% | 1009.5 hPa | - | - | - | - |
| 1777202798 | 4.44° C | 54% | 1009.2 hPa | - | - | - | - |
| 1777201597 | 5° C | 50% | 1009 hPa | - | - | - | - |
| 1777200398 | 5° C | 52% | 1008.7 hPa | - | - | - | - |
| 1777199197 | 5° C | 50% | 1008.5 hPa | - | - | - | - |
| 1777197998 | 5° C | 48% | 1008.3 hPa | - | - | - | - |
| 1777196797 | 5° C | 51% | 1007.9 hPa | - | - | - | - |
| 1777195598 | 5° C | 49% | 1007.7 hPa | - | - | - | - |
| 1777194397 | 5° C | 50% | 1007.4 hPa | - | - | - | - |
| 1777193197 | 5° C | 47% | 1007.1 hPa | - | - | - | - |
| 1777191997 | 5° C | 47% | 1006.9 hPa | - | - | - | - |
| 1777190797 | 5° C | 46% | 1006.9 hPa | - | - | - | - |
| 1777189598 | 4.44° C | 54% | 1006.7 hPa | - | - | - | - |
| 1777188397 | 4.44° C | 51% | 1006.4 hPa | - | - | - | - |
| 1777187197 | 4.44° C | 51% | 1006.2 hPa | - | - | - | - |
| 1777185997 | 4.44° C | 42% | 1006 hPa | - | - | - | - |
| 1777184797 | 4.44° C | 42% | 1005.8 hPa | - | - | - | - |
| 1777183596 | 3.89° C | 47% | 1005.6 hPa | - | - | - | - |
| 1777182397 | 3.33° C | 48% | 1005.3 hPa | - | - | - | - |
* Rain since midnight (hover to see other rain measurements)
** Current wind speed in m/s (hover to see current wind gust speed)